Location: Newark
(54.3386°S, 169.8415°W)
Time: 12:26:03
(UTC+00:00)

Transit 2A Rocket - Pass Details

Date: 28 October 2019
Orbit: 594 x 909 km, 66.7° (Epoch: 14 November)

Event Time Altitude Azimuth Distance (km) Brightness Sun altitude
Rises 12:23:32 0° 228° (SW) 3,566 8.7 -20.4°
Reaches altitude 10° 12:27:04 10° 248° (WSW) 2,623 7.8 -20.2°
Enters shadow 12:30:27 16° 282° (WNW) 2,200 7.0 -20.0°
Maximum altitude 12:30:36 16° 283° (WNW) 2,198 - -20.0°
Drops below altitude 10° 12:34:06 10° 319° (NW) 2,577 - -19.8°
Sets 12:37:32 0° 339° (NNW) 3,471 - -19.6°
